When you browse on this site, cookies collect data to enhance your experience and personalize the content and advertising you see.
Visit our Privacy Policy to learn more. By continuing to use the site, you agree to this use of cookies and data.
  • In Hungary
  • List of Countries
  • For 7 days
  • Water Temperature
  • Satellite Maps
  • Weather Map
  • News
  • Weather Widgets
  • user-avatar
    Login

    Hourly Weather Bisceglie

    Today, 14 December, Friday

    Time Temperature Precipitation Wind Pressure Humidity
    00:00 +12°C° 0.2 mm 2 mps 756 mmHg 86%
    01:00 +12°C° 0.2 mm 2 mps 756 mmHg 86%
    02:00 +12°C° 0.4 mm 2 mps 756 mmHg 87%
    03:00 +12°C° 0.4 mm 2 mps 755 mmHg 88%
    04:00 +12°C° 0.4 mm 2 mps 755 mmHg 89%
    05:00 +11°C° 0.3 mm 3 mps 755 mmHg 89%
    06:00 +11°C° 0.3 mm 4 mps 755 mmHg 90%
    07:00 +11°C° 0.3 mm 4 mps 755 mmHg 90%
    08:00 +12°C° 0 mm 4 mps 755 mmHg 86%
    09:00 +13°C° 0 mm 4 mps 755 mmHg 82%
    10:00 +14°C° 0 mm 4 mps 754 mmHg 78%
    11:00 +16°C° 0 mm 3 mps 754 mmHg 75%
    12:00 +16°C° 0 mm 3 mps 754 mmHg 71%
    13:00 +17°C° 0 mm 2 mps 754 mmHg 67%
    14:00 +16°C° 0 mm 2 mps 754 mmHg 70%
    15:00 +16°C° 0 mm 2 mps 754 mmHg 73%
    16:00 +15°C° 0 mm 2 mps 754 mmHg 75%
    17:00 +15°C° 0 mm 2 mps 754 mmHg 78%
    18:00 +14°C° 0 mm 2 mps 755 mmHg 81%
    19:00 +14°C° 0 mm 2 mps 755 mmHg 83%
    20:00 +12°C° 0 mm 3 mps 755 mmHg 86%
    21:00 +12°C° 0 mm 3 mps 755 mmHg 89%
    22:00 +12°C° 0 mm 3 mps 755 mmHg 91%
    23:00 +12°C° 0.1 mm 3 mps 755 mmHg 92%

    Tomorrow, 15 December, Saturday

    Time Temperature Precipitation Wind Pressure Humidity
    00:00 +12°C° 0.1 mm 3 mps 755 mmHg 92%
    01:00 +12°C° 0.1 mm 4 mps 755 mmHg 92%
    02:00 +12°C° 0.2 mm 4 mps 755 mmHg 92%
    03:00 +12°C° 0.2 mm 5 mps 755 mmHg 91%
    04:00 +10°C° 0.2 mm 5 mps 755 mmHg 91%
    05:00 +10°C° 0.1 mm 5 mps 755 mmHg 90%
    06:00 +10°C° 0.1 mm 6 mps 755 mmHg 89%
    07:00 +10°C° 0.1 mm 6 mps 755 mmHg 88%
    08:00 +10°C° 0 mm 6 mps 756 mmHg 86%
    09:00 +10°C° 0 mm 6 mps 756 mmHg 84%
    10:00 +10°C° 0 mm 6 mps 757 mmHg 82%
    11:00 +9°C° 0 mm 6 mps 757 mmHg 82%
    12:00 +9°C° 0 mm 6 mps 757 mmHg 81%
    13:00 +9°C° 0 mm 6 mps 757 mmHg 80%
    14:00 +9°C° 0.3 mm 6 mps 757 mmHg 81%
    15:00 +8°C° 0.3 mm 6 mps 757 mmHg 82%
    16:00 +8°C° 0.3 mm 7 mps 757 mmHg 84%
    17:00 +8°C° 0.3 mm 7 mps 758 mmHg 82%
    18:00 +8°C° 0.3 mm 7 mps 758 mmHg 81%
    19:00 +6°C° 0.3 mm 7 mps 759 mmHg 80%
    20:00 +6°C° 0 mm 8 mps 759 mmHg 78%
    21:00 +6°C° 0 mm 8 mps 759 mmHg 77%
    22:00 +6°C° 0 mm 9 mps 760 mmHg 75%
    23:00 +5°C° 0 mm 9 mps 760 mmHg 75%

    Day after tomorrow, 16 December, Sunday

    Time Temperature Precipitation Wind Pressure Humidity
    00:00 +5°C° 0 mm 9 mps 760 mmHg 76%
    01:00 +3°C° 0 mm 9 mps 760 mmHg 76%
    02:00 +3°C° 0 mm 9 mps 760 mmHg 75%
    03:00 +3°C° 0 mm 9 mps 760 mmHg 74%
    04:00 +3°C° 0 mm 9 mps 761 mmHg 73%
    05:00 +3°C° 0 mm 9 mps 761 mmHg 73%
    06:00 +3°C° 0 mm 9 mps 761 mmHg 74%
    07:00 +4°C° 0 mm 8 mps 761 mmHg 74%
    08:00 +5°C° 0 mm 8 mps 761 mmHg 71%
    09:00 +6°C° 0 mm 8 mps 762 mmHg 69%
    10:00 +7°C° 0 mm 8 mps 762 mmHg 66%
    11:00 +7°C° 0 mm 8 mps 762 mmHg 64%
    12:00 +9°C° 0 mm 8 mps 762 mmHg 61%
    13:00 +10°C° 0 mm 8 mps 762 mmHg 58%
    14:00 +9°C° 0 mm 7 mps 762 mmHg 60%
    15:00 +9°C° 0 mm 6 mps 762 mmHg 62%
    16:00 +9°C° 0 mm 5 mps 762 mmHg 64%
    17:00 +8°C° 0 mm 5 mps 762 mmHg 66%
    18:00 +7°C° 0 mm 4 mps 763 mmHg 68%
    19:00 +7°C° 0 mm 4 mps 763 mmHg 70%
    20:00 +8°C° 0 mm 3 mps 763 mmHg 69%
    21:00 +7°C° 0 mm 3 mps 763 mmHg 69%
    22:00 +7°C° 0 mm 2 mps 764 mmHg 69%
    23:00 +7°C° 0 mm 2 mps 763 mmHg 67%

    17 December, Monday

    Time Temperature Precipitation Wind Pressure Humidity
    00:00 +7°C° 0 mm 2 mps 763 mmHg 66%
    01:00 +7°C° 0 mm 2 mps 763 mmHg 64%
    02:00 +7°C° 0 mm 2 mps 763 mmHg 64%
    03:00 +7°C° 0 mm 2 mps 763 mmHg 63%
    04:00 +7°C° 0 mm 2 mps 762 mmHg 63%
    05:00 +7°C° 0 mm 2 mps 762 mmHg 62%
    06:00 +7°C° 0 mm 3 mps 762 mmHg 62%
    07:00 +7°C° 0 mm 3 mps 762 mmHg 61%
    08:00 +9°C° 0 mm 3 mps 762 mmHg 61%
    09:00 +10°C° 0 mm 4 mps 762 mmHg 61%
    10:00 +11°C° 0 mm 4 mps 762 mmHg 61%
    11:00 +12°C° 0.2 mm 4 mps 761 mmHg 63%
    12:00 +13°C° 0.2 mm 4 mps 761 mmHg 65%
    13:00 +14°C° 0.2 mm 4 mps 761 mmHg 67%
    14:00 +14°C° 0.1 mm 3 mps 761 mmHg 70%
    15:00 +15°C° 0.1 mm 2 mps 760 mmHg 73%
    16:00 +14°C° 0.1 mm 2 mps 760 mmHg 75%
    17:00 +14°C° 0.1 mm 2 mps 761 mmHg 78%
    18:00 +12°C° 0.1 mm 3 mps 761 mmHg 80%
    19:00 +12°C° 0.1 mm 4 mps 761 mmHg 83%
    20:00 +12°C° 0 mm 4 mps 761 mmHg 83%
    21:00 +11°C° 0 mm 4 mps 762 mmHg 84%
    22:00 +10°C° 0 mm 5 mps 762 mmHg 84%
    23:00 +10°C° 0.1 mm 5 mps 762 mmHg 86%

    18 December, Tuesday

    Time Temperature Precipitation Wind Pressure Humidity
    00:00 +10°C° 0.1 mm 6 mps 762 mmHg 87%
    01:00 +9°C° 0.1 mm 6 mps 762 mmHg 88%
    02:00 +9°C° 0.2 mm 6 mps 762 mmHg 87%
    03:00 +9°C° 0.2 mm 6 mps 762 mmHg 87%
    04:00 +9°C° 0.2 mm 7 mps 762 mmHg 87%
    05:00 +9°C° 0.1 mm 6 mps 762 mmHg 86%
    06:00 +9°C° 0.1 mm 6 mps 762 mmHg 85%
    07:00 +9°C° 0.1 mm 6 mps 762 mmHg 84%
    08:00 +9°C° 0.1 mm 7 mps 763 mmHg 81%
    09:00 +9°C° 0.1 mm 7 mps 763 mmHg 78%
    10:00 +9°C° 0.1 mm 8 mps 764 mmHg 75%
    11:00 +9°C° 0.1 mm 8 mps 764 mmHg 72%
    12:00 +10°C° 0.1 mm 8 mps 763 mmHg 68%
    13:00 +10°C° 0.1 mm 8 mps 763 mmHg 65%
    14:00 +10°C° 0.1 mm 8 mps 763 mmHg 66%
    15:00 +9°C° 0.1 mm 8 mps 763 mmHg 67%
    16:00 +9°C° 0.1 mm 7 mps 763 mmHg 68%
    17:00 +9°C° 0 mm 7 mps 764 mmHg 70%
    18:00 +8°C° 0 mm 7 mps 764 mmHg 72%
    19:00 +8°C° 0 mm 7 mps 765 mmHg 74%
    20:00 +8°C° 0 mm 7 mps 765 mmHg 75%
    21:00 +8°C° 0 mm 7 mps 766 mmHg 75%
    22:00 +8°C° 0 mm 7 mps 766 mmHg 76%
    23:00 +8°C° 0 mm 6 mps 766 mmHg 77%

    19 December, Wednesday

    Time Temperature Precipitation Wind Pressure Humidity
    00:00 +7°C° 0 mm 6 mps 766 mmHg 79%
    01:00 +7°C° 0 mm 5 mps 766 mmHg 80%
    02:00 +7°C° 0 mm 5 mps 766 mmHg 81%
    03:00 +7°C° 0 mm 5 mps 766 mmHg 81%
    04:00 +7°C° 0 mm 5 mps 767 mmHg 82%
    05:00 +7°C° 0 mm 5 mps 767 mmHg 82%
    06:00 +7°C° 0 mm 4 mps 767 mmHg 82%
    07:00 +6°C° 0 mm 4 mps 767 mmHg 83%
    08:00 +8°C° 0 mm 4 mps 767 mmHg 78%
    09:00 +10°C° 0 mm 4 mps 768 mmHg 73%
    10:00 +11°C° 0 mm 4 mps 768 mmHg 68%
    11:00 +12°C° 0 mm 3 mps 768 mmHg 63%
    12:00 +13°C° 0 mm 2 mps 767 mmHg 58%
    13:00 +14°C° 0 mm 2 mps 767 mmHg 54%
    14:00 +14°C° 0 mm 1 mps 767 mmHg 55%
    15:00 +14°C° 0 mm 1 mps 766 mmHg 57%
    16:00 +13°C° 0 mm 1 mps 766 mmHg 59%
    17:00 +13°C° 0 mm 1 mps 766 mmHg 61%
    18:00 +12°C° 0 mm 2 mps 766 mmHg 63%
    19:00 +12°C° 0 mm 2 mps 766 mmHg 65%
    20:00 +10°C° 0 mm 3 mps 766 mmHg 66%
    21:00 +10°C° 0 mm 3 mps 766 mmHg 68%
    22:00 +10°C° 0 mm 4 mps 766 mmHg 69%
    23:00 +8°C° 0 mm 4 mps 765 mmHg 70%
    Show more